Wind_Speed
13 14 14 15 15 15 15 15 16 15 14 13 12 12 14 15 16 16 16 16 15 14 12 12 13 14 16 15 15 14 12 12 14 14 13 11 10 9 9 9 10 10 11 11 12 12 11 10 9 9 9 9 10 11 12 11 11 12 12 13 13 12 13 13 13 12 12 12 11 11 12 12 11 11 10 10 10 10 10 11 11 11 12 13 14
14 14 14 14 15 16 16 16 17 17 15 14 12 11 13 14 16 17 17 18 18 16 13 13 13 14 15 15 15 15 12 12 14 14 13 13 12 11 11 10 10 11 12 12 12 12 12 11 10 9 9 9 10 11 12 12 12 12 12 12 12 12 12 13 13 12 12 12 11 11 12 12 12 12 11 11 11 11 11 11 12 12 12 13 13
14 15 14 14 15 16 17 17 17 18 17 15 13 11 12 14 16 17 18 18 20 19 16 14 14 15 15 15 15 15 13 12 14 14 14 14 14 13 12 12 12 12 12 13 12 11 11 11 10 9 9 9 10 11 12 12 12 12 12 12 12 12 12 13 13 13 12 12 12 11 11 12 12 12 12 12 12 12 12 12 12 13 13 13 13
14 15 15 14 14 15 16 18 18 18 18 16 14 12 12 14 15 17 19 19 20 21 20 17 15 16 16 16 15 14 12 12 13 14 14 14 14 14 14 14 13 12 11 12 12 11 10 11 11 10 9 10 10 11 11 12 12 12 12 12 12 11 12 12 13 13 13 13 12 11 11 11 12 13 13 13 13 13 13 13 13 13 13 13 13
14 16 16 16 16 15 16 18 19 19 19 17 15 13 12 13 15 17 19 20 21 23 23 20 18 18 17 16 16 14 13 12 13 14 15 14 14 14 14 15 14 12 10 10 11 11 10 10 11 11 10 10 10 11 11 12 12 12 11 11 11 11 12 12 13 13 13 13 13 12 12 12 12 13 13 13 13 14 14 14 14 14 13 13 13
15 17 17 17 18 17 16 17 19 20 19 18 16 14 13 13 15 17 18 20 22 23 24 22 21 20 19 17 16 15 14 13 13 14 15 15 14 14 13 14 13 11 10 9 10 11 10 10 11 11 10 10 11 12 12 12 12 12 11 11 11 12 12 13 13 13 14 14 14 13 13 12 13 13 13 14 14 14 15 15 15 14 14 14 13
14 17 19 19 19 18 17 17 19 20 20 18 16 14 13 13 15 17 18 19 21 23 24 24 22 22 20 19 16 14 14 13 14 14 16 16 16 14 14 13 12 10 9 9 10 11 11 10 10 11 10 11 12 13 12 12 13 12 11 11 11 12 13 13 13 14 14 14 14 14 14 13 13 14 14 14 14 15 15 16 16 15 15 14 14
13 16 19 20 20 20 18 17 18 20 20 19 17 15 14 13 15 17 19 20 22 23 24 25 24 22 21 20 18 15 14 13 13 14 15 17 17 16 14 13 12 10 9 9 9 10 11 11 10 11 12 12 12 13 13 13 13 12 11 11 11 12 13 14 14 14 14 15 15 15 15 14 14 14 15 15 15 15 16 17 16 16 16 15 15
12 15 19 20 20 20 19 18 18 20 20 19 17 16 15 14 15 17 19 20 22 23 24 25 24 23 22 21 20 18 16 14 13 14 14 15 17 17 15 15 13 11 11 10 9 10 11 11 11 12 13 12 12 13 14 14 14 13 12 12 12 13 14 14 15 15 15 15 16 16 16 15 15 15 15 16 16 16 17 17 17 17 17 16 16
12 15 18 20 20 20 19 18 19 20 20 19 18 17 15 15 15 16 18 20 22 23 24 25 25 23 22 21 21 21 20 17 16 15 15 15 17 18 17 16 15 13 12 11 10 10 11 11 12 12 13 14 13 13 14 14 14 14 13 12 12 13 14 15 16 16 16 16 17 16 16 16 16 16 16 16 16 17 17 17 18 18 18 17 17
12 15 18 19 20 19 18 18 19 20 20 19 19 17 15 15 16 16 18 20 22 23 25 25 24 24 23 21 21 22 22 20 18 17 17 16 17 19 18 17 16 15 13 13 12 12 12 12 12 13 14 15 14 13 14 14 14 14 14 13 13 13 14 15 16 17 17 17 17 17 16 16 16 17 17 17 17 17 18 18 18 18 19 19 18
13 15 18 19 19 18 17 18 19 19 20 19 19 16 15 16 16 17 18 20 22 24 25 25 24 24 23 22 22 22 23 22 20 18 18 17 17 19 19 19 18 16 14 13 13 13 14 14 14 14 15 16 16 14 14 15 14 14 14 13 13 14 15 15 16 17 18 18 18 18 17 16 17 17 17 18 18 18 18 19 19 19 19 20 19
14 15 18 19 19 18 17 18 19 19 19 19 17 15 15 16 16 17 18 20 22 24 24 24 24 24 23 23 23 23 23 23 21 19 18 18 18 19 20 20 19 18 16 14 14 14 15 16 16 16 16 17 17 15 14 14 14 15 14 14 14 15 16 16 16 17 18 19 19 18 17 17 17 17 18 18 18 18 19 19 19 20 20 20 20
15 16 18 19 19 18 17 18 19 20 19 18 16 15 16 15 15 16 18 20 22 24 23 23 23 23 22 22 23 23 24 24 23 21 20 19 19 19 20 20 20 19 17 15 15 15 16 17 18 18 17 17 18 16 14 13 14 15 15 15 15 16 17 17 16 16 18 20 20 19 18 17 17 17 18 18 19 19 19 19 20 21 21 21 21
16 16 18 19 19 18 17 18 20 20 18 17 15 15 15 15 15 16 19 21 22 24 24 23 23 23 22 22 23 23 24 25 25 23 22 22 21 20 20 20 20 20 18 15 15 16 16 17 18 19 19 19 19 18 16 13 13 14 15 16 16 16 17 17 17 17 18 19 19 19 18 18 17 17 18 18 19 19 19 20 20 21 22 22 22
16 16 18 20 19 18 17 18 20 20 18 16 15 15 15 14 15 17 19 20 22 24 25 24 23 23 22 22 23 23 24 25 26 24 23 23 22 22 21 20 19 19 18 15 15 16 16 17 19 20 20 20 20 19 17 14 13 15 16 17 17 16 17 18 18 19 19 19 18 19 19 18 17 17 18 18 19 19 19 20 21 22 22 23 23
16 16 18 20 20 19 18 18 20 20 18 15 15 15 15 16 17 18 20 20 21 23 25 24 23 23 22 22 23 24 25 26 27 25 23 22 22 22 22 21 19 18 17 15 15 16 16 17 19 21 21 21 21 20 18 16 16 16 16 17 17 17 17 18 19 20 20 20 19 19 19 18 18 18 18 18 19 19 20 20 21 22 23 23 24
16 17 19 20 21 20 18 18 19 20 17 15 15 16 16 17 19 20 21 21 21 23 24 24 23 22 22 23 24 25 26 27 27 26 24 22 20 21 21 21 19 17 15 14 15 16 16 17 19 21 21 22 22 21 18 16 17 18 17 17 18 17 17 18 19 20 20 20 20 20 20 19 19 19 19 19 19 20 20 21 21 22 23 24 24
16 18 19 21 22 21 19 18 19 19 17 15 14 16 18 19 21 22 22 21 22 23 23 23 22 22 22 23 24 26 27 27 27 26 25 23 20 20 20 19 19 16 13 14 16 16 16 17 20 21 21 22 22 21 18 17 18 19 19 19 19 19 18 18 19 20 20 20 20 20 21 20 20 20 20 20 20 20 21 21 22 23 23 23 24
17 18 19 21 22 21 18 18 19 19 18 16 14 16 18 20 22 22 21 21 21 22 22 22 22 21 22 24 24 25 26 26 26 26 25 24 21 20 20 18 18 17 14 13 15 16 16 17 20 22 22 22 21 20 18 17 18 19 20 20 20 19 19 19 19 19 20 21 21 21 22 22 21 21 21 21 21 22 22 22 23 23 23 23 24
18 18 19 21 22 20 17 17 18 19 19 17 15 17 20 22 22 21 20 20 20 21 21 22 21 21 22 24 24 25 25 25 25 25 25 24 22 22 22 19 18 18 16 16 16 15 15 16 19 22 22 22 21 19 17 17 18 19 19 20 20 20 19 19 19 19 20 21 22 22 22 22 22 22 22 22 22 23 23 23 23 24 24 24 24
18 18 19 21 22 19 17 17 18 19 19 17 16 18 20 21 21 20 19 19 19 20 21 20 20 21 23 24 25 26 26 26 26 25 24 24 24 23 23 22 20 17 17 19 18 16 14 14 18 22 22 22 21 19 17 17 18 19 19 20 20 20 19 19 19 20 20 21 21 22 23 23 23 22 23 23 23 24 24 24 24 25 25 25 25
18 17 18 21 21 18 17 18 18 19 19 18 18 19 20 20 20 19 18 18 19 19 19 19 20 22 23 24 26 27 27 27 27 26 25 26 25 22 21 22 22 19 19 19 19 18 15 14 16 20 21 20 20 19 17 17 17 18 19 20 20 20 19 19 19 20 20 21 21 22 23 24 23 23 23 24 25 25 25 25 26 26 26 26 26
17 17 18 20 20 18 18 18 18 19 19 18 19 20 21 20 19 18 17 17 18 18 18 19 20 23 24 24 25 26 27 27 27 27 28 27 25 22 21 21 21 21 21 20 19 19 18 15 16 18 19 18 19 18 17 17 17 17 18 19 20 20 20 20 20 20 21 21 22 22 23 24 24 24 25 25 25 26 26 26 27 27 27 27 27
17 17 19 20 19 18 18 18 18 19 18 18 19 21 21 20 19 17 16 17 17 18 17 18 20 22 23 23 24 25 26 27 27 28 28 27 24 21 20 20 20 21 20 19 19 19 19 17 16 17 17 18 18 17 16 18 18 18 18 18 19 20 20 20 21 21 21 22 22 23 24 25 25 25 26 26 26 26 26 27 28 28 28 28 29
17 18 19 20 18 18 18 17 18 18 18 19 20 21 22 20 18 17 16 16 17 17 17 18 19 21 22 23 24 25 26 27 28 28 28 27 25 22 20 20 20 20 18 17 17 18 18 17 16 17 18 18 18 16 16 18 19 19 19 19 19 20 20 21 21 22 22 23 23 24 26 26 26 27 27 27 27 27 27 28 28 29 29 30 30
18 18 19 19 18 18 17 16 17 18 18 20 21 22 21 20 18 16 16 16 17 18 17 18 19 21 22 23 24 25 25 26 28 28 27 27 26 22 20 20 20 19 18 17 18 19 19 17 16 18 19 19 18 18 18 19 20 20 20 20 20 21 21 22 22 23 23 24 24 26 27 27 28 28 28 28 28 28 29 29 29 30 30 31 31
18 18 19 18 18 18 17 16 16 17 18 20 21 22 21 20 17 16 16 17 17 17 17 18 20 22 23 23 24 25 25 26 28 28 26 26 27 23 20 20 20 19 18 18 19 20 19 17 16 18 19 20 21 21 20 19 20 21 21 20 20 21 22 22 23 24 25 25 26 27 27 29 29 29 29 29 29 30 30 31 31 31 32 32 33
18 18 18 17 17 18 17 16 16 17 19 20 21 22 21 20 18 17 17 17 17 17 18 19 20 22 23 24 24 25 25 25 27 27 26 27 27 24 20 19 18 18 17 16 18 20 20 19 17 17 19 20 21 21 20 20 20 21 21 20 20 21 23 24 24 25 25 27 28 28 29 30 30 30 30 31 31 31 32 32 32 32 33 33 34
19 18 17 16 17 17 17 16 16 17 18 19 20 21 21 20 18 18 18 17 16 17 18 19 20 21 23 24 24 24 25 25 25 26 25 26 26 22 18 16 14 14 14 15 17 19 20 19 17 17 18 19 20 20 21 21 21 21 21 21 20 21 23 25 26 27 27 28 29 29 30 31 31 31 31 31 31 32 33 33 33 34 34 34 35
19 18 17 16 16 17 17 16 16 17 18 19 20 21 21 20 19 19 18 17 17 16 17 18 19 20 22 23 23 23 23 23 24 24 24 25 24 19 14 12 10 11 12 13 16 18 18 17 16 16 18 19 20 21 21 22 21 22 22 22 22 22 24 26 27 28 28 29 30 30 31 32 32 32 32 32 32 33 34 34 34 35 35 35 36
19 18 17 16 16 17 17 17 17 18 19 19 20 20 21 20 19 19 18 18 17 16 17 18 19 20 21 21 21 21 22 23 22 21 21 22 22 18 13 10 8 9 11 12 15 17 16 16 16 18 19 20 21 21 21 22 23 24 25 24 23 24 26 28 29 29 29 29 30 31 32 33 32 32 31 31 32 34 35 35 35 35 36 37 37
19 18 18 18 17 17 17 17 18 19 19 19 20 20 21 20 19 19 18 18 17 17 18 19 19 20 20 20 20 20 21 21 21 20 20 19 19 18 14 11 10 10 11 13 15 17 17 17 19 20 21 22 22 22 22 23 26 27 27 26 26 28 31 32 31 30 29 29 29 31 33 32 31 31 31 32 33 35 35 36 36 36 37 38 39
19 19 19 19 18 17 18 18 19 19 19 20 20 21 21 21 20 19 17 17 18 18 18 19 20 21 20 19 19 19 19 20 20 20 19 18 17 15 14 12 12 12 13 14 15 16 17 18 20 21 21 22 24 25 25 26 29 30 30 29 29 30 31 30 29 29 29 29 31 33 33 31 31 31 31 32 33 34 35 36 36 37 39 40 41
20 20 20 19 18 18 18 19 19 19 20 20 21 21 21 21 21 19 17 17 18 18 19 19 21 21 21 19 18 19 19 19 19 19 19 19 17 16 15 14 13 14 14 15 16 16 16 17 19 21 23 23 24 26 28 29 29 29 29 29 28 29 30 30 31 31 30 31 32 32 31 31 31 31 30 31 32 34 35 36 37 38 40 41 42
21 20 20 19 18 18 19 20 20 20 21 22 21 22 22 22 21 20 19 18 18 18 19 20 21 21 21 20 19 19 19 19 19 19 19 19 18 17 16 15 15 15 15 15 16 16 17 18 18 18 21 24 25 26 26 26 26 26 26 27 28 30 31 31 32 31 29 29 29 29 30 31 31 31 31 32 33 34 36 36 38 39 41 42 43
21 20 20 18 18 18 20 21 21 22 23 23 22 22 22 22 21 21 21 19 18 19 20 20 22 22 21 20 19 19 19 19 19 19 19 19 19 18 18 17 17 17 16 15 16 17 19 22 22 21 23 26 27 27 25 25 26 27 27 28 29 30 29 28 27 26 26 26 27 28 30 30 31 32 33 34 35 36 38 39 40 41 43 44 44
21 20 19 18 18 19 21 22 21 22 24 23 23 22 22 21 21 22 21 20 19 20 21 21 22 22 21 20 19 19 19 19 19 19 19 19 19 19 19 19 19 19 18 17 18 18 19 22 23 23 25 26 25 25 26 27 27 28 28 27 26 26 25 25 26 25 25 25 26 29 30 31 32 33 35 36 37 38 40 41 42 44 45 46 47
21 20 19 18 19 20 21 22 21 22 24 24 23 22 21 20 21 22 22 21 21 21 22 22 22 22 21 21 20 20 20 20 19 19 19 19 19 19 19 19 19 20 20 20 20 20 19 20 21 22 24 25 24 25 26 25 25 25 25 25 25 25 25 25 25 25 25 26 27 29 30 31 33 34 36 37 39 40 42 44 45 46 48 49 51
21 20 19 19 20 21 22 22 22 22 23 24 23 22 21 20 21 22 22 22 22 22 23 24 23 23 22 22 21 22 23 22 22 21 20 20 20 20 19 19 19 20 20 20 20 21 20 21 22 22 23 23 23 24 24 23 23 23 24 24 25 25 25 24 24 25 27 28 29 30 31 32 33 35 37 39 41 43 45 46 48 49 50 52 53
21 20 20 20 21 22 22 23 22 22 23 24 24 22 22 21 21 21 22 22 22 22 23 24 25 24 24 23 22 23 24 24 24 23 23 22 22 21 21 20 20 20 21 21 21 21 21 22 23 23 23 22 22 22 22 22 22 22 22 24 25 25 25 24 25 26 28 29 30 31 32 34 35 37 39 41 44 46 47 48 49 50 52 53 55
21 21 21 22 23 24 23 23 23 23 25 26 24 23 23 22 21 21 22 22 22 22 23 25 25 25 25 24 23 24 24 25 25 25 24 23 23 22 21 20 20 20 21 22 22 22 23 23 23 23 23 22 22 22 22 22 22 22 23 24 25 25 25 25 25 27 28 30 31 33 35 37 39 41 42 44 46 48 49 50 51 53 54 55 56
21 22 22 22 24 24 24 23 23 24 26 26 24 23 23 22 21 21 21 21 21 22 24 25 25 26 26 25 25 25 25 25 26 26 26 25 24 23 22 21 20 20 21 21 22 23 23 23 23 24 24 23 23 23 23 23 23 24 24 25 25 26 26 26 27 29 31 33 35 37 39 40 42 43 45 46 48 50 51 53 54 55 56 56 56
21 22 22 22 24 25 24 22 23 24 25 25 24 24 22 21 21 21 21 21 21 23 24 24 25 26 26 26 26 26 26 26 27 27 27 26 25 24 23 22 21 21 20 21 22 23 23 23 23 24 24 25 25 25 25 25 25 25 26 26 27 27 29 30 32 33 35 37 39 41 42 43 44 46 47 49 50 52 53 54 55 55 56 56 57
22 22 22 23 24 25 23 22 23 24 24 24 26 25 23 22 22 22 22 21 21 23 24 24 25 26 26 27 27 27 27 27 28 28 28 27 26 25 24 24 23 22 22 22 23 23 23 24 24 24 25 25 26 26 26 27 27 27 28 29 30 31 33 34 36 37 38 39 41 43 45 46 47 48 50 51 52 53 54 55 56 56 56 57 57
22 22 23 24 24 24 24 23 24 24 25 26 28 28 25 23 23 23 22 21 22 24 25 25 25 26 26 28 28 28 28 28 28 28 28 27 26 26 25 24 24 23 23 23 24 24 25 25 25 26 26 27 28 28 29 29 29 30 31 32 33 34 36 37 38 40 41 42 44 46 47 48 49 50 51 51 53 54 54 55 56 56 57 57 58
23 24 24 24 24 24 24 24 24 24 25 27 30 30 27 24 23 24 23 22 23 25 26 26 26 26 27 28 28 28 29 29 29 28 28 27 26 26 25 25 24 24 24 24 25 25 26 26 27 27 28 29 29 30 30 30 31 31 32 33 34 35 37 39 40 42 44 45 46 48 49 49 50 51 51 52 53 53 54 54 55 55 56 57 57
24 23 23 22 23 23 24 24 25 24 25 27 28 27 24 23 23 24 24 23 24 27 27 27 27 28 28 29 29 29 29 29 29 29 28 28 27 26 25 25 25 25 25 25 26 26 26 27 27 28 28 29 30 30 31 31 31 31 31 32 34 37 39 41 43 44 46 47 48 49 50 50 50 51 51 51 51 52 52 52 53 54 55 55 56
23 23 23 22 21 23 24 25 25 25 25 26 26 24 22 22 25 25 24 24 25 28 28 28 28 29 29 29 29 29 29 29 29 29 29 29 28 26 26 26 26 26 26 27 27 27 28 28 28 29 29 30 30 30 31 30 30 30 32 35 38 40 42 44 45 46 47 48 49 49 49 50 50 50 50 49 49 51 51 52 53 54 55 55 56
23 24 23 21 21 23 24 25 26 26 25 25 24 23 22 23 25 25 24 24 25 28 29 29 30 30 30 30 30 30 30 30 30 29 30 30 29 28 27 28 29 29 29 30 30 30 30 31 31 31 31 32 32 31 31 31 30 32 36 40 42 43 44 46 46 47 48 48 48 48 49 49 49 48 47 48 49 51 52 53 54 55 55 56 56
24 25 23 21 22 24 25 27 27 27 26 25 25 24 23 24 25 25 25 25 26 28 30 30 31 31 31 31 31 30 30 30 30 29 30 30 30 29 29 30 31 31 32 32 32 32 32 32 33 34 33 33 33 33 31 31 33 37 41 45 45 45 46 46 46 47 48 47 47 48 48 48 47 46 47 48 50 51 53 53 54 55 55 55 54
Wind_Direction
333 331 326 322 321 323 328 331 326 321 320 322 328 334 338 341 344 346 343 341 345 347 349 354 346 331 326 326 320 315 313 306 299 295 291 288 292 298 305 314 324 328 326 324 321 313 304 293 289 290 296 301 303 303 304 303 298 293 292 292 294 298 302 301 300 303 307 310 312 308 300 294 287 281 274 272 274 279 286 291 294 295 297 302 305
332 332 328 321 320 322 327 329 326 321 317 316 320 326 332 337 339 342 341 339 340 341 349 358 348 331 321 318 314 315 321 315 303 297 294 291 292 293 295 302 312 320 324 324 321 313 303 293 287 286 291 295 298 299 300 299 295 290 289 290 294 299 301 302 303 304 306 308 310 307 301 294 288 282 276 274 276 280 284 288 290 292 294 299 302
330 332 330 323 319 322 324 325 324 320 316 312 314 318 324 331 335 337 338 338 337 336 344 355 348 330 317 309 309 315 325 322 312 308 303 296 293 291 291 294 299 309 318 321 320 313 302 292 285 284 287 292 294 295 295 294 290 287 287 289 294 299 302 302 303 304 303 303 304 303 299 294 288 282 278 277 278 280 282 284 287 289 291 296 297
329 333 332 325 319 320 321 321 321 318 314 310 308 311 317 325 329 330 333 335 336 336 339 347 345 330 316 308 307 312 323 326 322 318 312 305 300 294 290 290 294 303 313 317 317 312 302 291 284 282 286 291 292 291 290 288 286 284 285 289 294 299 300 299 301 302 301 298 297 298 296 293 287 282 279 278 278 279 280 282 284 285 288 291 293
328 333 333 328 320 316 317 317 317 315 311 307 304 305 310 316 321 324 328 331 334 334 334 341 342 333 321 312 309 312 322 329 329 322 317 316 312 304 295 291 292 299 306 311 314 310 299 289 284 282 285 290 290 288 286 284 283 283 284 288 294 298 297 296 299 300 298 295 293 293 293 291 286 282 279 277 276 277 278 279 280 281 283 287 289
325 330 332 330 322 314 312 313 315 313 307 301 299 300 303 308 312 315 321 326 330 330 331 337 341 338 328 318 315 317 324 332 333 325 319 317 317 314 306 298 295 296 298 303 310 307 297 289 286 283 284 290 291 287 285 283 282 283 284 288 294 296 295 295 298 298 295 292 290 288 288 288 285 282 279 277 275 275 277 278 278 278 280 282 284
320 326 328 329 325 315 309 310 312 311 305 297 293 293 295 299 304 308 313 319 324 327 329 334 340 340 333 324 320 320 324 332 334 327 319 315 315 318 317 311 301 293 292 299 305 303 296 290 286 286 288 291 292 289 287 284 282 283 284 288 292 293 294 295 296 295 293 291 288 286 286 285 285 283 280 277 275 275 275 276 278 278 278 278 279
313 320 324 327 326 317 307 307 310 308 302 294 289 288 287 289 296 303 308 314 320 325 328 332 338 341 336 328 323 321 322 327 331 328 320 315 314 317 319 317 308 293 288 295 299 297 294 290 287 287 289 291 291 290 288 286 284 284 285 286 289 291 292 294 294 294 293 291 289 287 285 285 284 284 282 279 276 275 275 276 277 278 277 276 277
305 314 319 324 326 319 309 306 309 306 298 288 282 282 281 282 289 297 304 310 317 323 326 331 336 340 338 331 326 322 321 324 327 325 321 315 312 314 318 318 313 299 286 287 291 290 290 290 288 286 286 287 288 289 289 287 286 284 284 285 287 290 292 292 292 292 292 291 289 287 286 285 285 284 282 280 277 274 274 276 277 277 277 276 276
298 310 315 320 324 319 311 307 307 303 294 283 275 273 273 276 283 291 298 306 314 320 324 329 334 338 336 332 327 322 321 324 324 322 320 314 310 311 315 316 313 305 291 283 283 284 284 287 289 288 285 282 282 286 287 284 284 284 283 284 286 289 290 291 290 289 289 289 288 286 286 285 285 284 282 280 277 275 274 275 277 278 277 277 276
290 305 312 317 321 318 311 307 305 299 290 279 273 271 269 270 278 286 294 304 311 316 321 326 331 334 332 330 327 322 320 321 321 319 316 312 307 305 309 312 311 307 298 286 280 278 278 281 286 288 287 282 278 280 282 281 281 282 282 282 284 287 288 289 289 288 288 287 287 286 285 285 285 284 283 281 279 277 276 276 278 279 278 277 277
285 300 309 314 318 317 310 305 301 294 286 277 273 274 268 267 275 284 293 303 308 312 319 324 328 330 329 328 325 321 319 318 317 317 315 310 304 300 302 305 305 305 300 290 281 276 274 277 282 286 286 284 279 274 276 279 279 278 278 279 281 284 285 286 287 289 290 288 287 286 286 285 285 284 283 282 280 278 278 278 280 280 280 279 278
282 296 306 312 316 316 308 303 297 289 284 278 277 275 267 267 275 285 295 302 305 311 318 322 325 326 326 326 323 320 318 316 316 319 316 309 303 299 298 298 299 300 298 292 285 278 275 277 280 283 283 283 282 276 273 276 277 276 276 276 278 281 282 283 286 290 291 290 288 287 286 285 284 284 283 282 281 279 279 280 281 283 282 281 279
279 293 303 308 312 313 306 300 293 286 283 280 278 273 269 273 281 289 296 301 305 312 317 320 322 324 325 325 322 320 318 315 316 318 315 310 306 301 297 295 295 296 297 294 288 282 278 278 280 281 281 281 282 280 275 271 273 275 276 277 278 279 280 282 285 289 291 291 290 289 288 286 285 284 284 284 283 281 282 282 283 284 284 283 280
275 288 300 304 309 309 301 295 290 284 281 278 275 270 272 281 288 293 296 300 306 311 315 318 321 323 324 324 322 319 317 314 314 314 311 309 308 303 299 295 293 293 296 295 290 286 284 283 283 283 282 280 280 280 276 270 270 273 275 275 275 278 281 284 287 290 289 289 290 289 288 287 285 284 285 284 284 284 284 284 284 285 285 284 282
270 283 295 300 304 304 295 291 289 284 280 273 269 271 279 289 293 294 296 301 306 308 311 316 320 321 322 323 322 320 319 317 316 314 310 308 307 305 301 297 293 290 293 294 291 289 289 290 289 288 287 283 280 279 278 275 272 270 271 273 274 277 282 285 289 290 290 290 289 288 287 286 285 285 286 286 286 285 285 285 285 285 285 285 283
268 281 291 298 301 299 293 289 287 285 280 268 265 272 282 291 294 296 298 302 305 305 308 314 318 319 321 323 324 324 324 323 322 320 316 312 309 306 304 300 295 291 292 292 289 288 291 294 294 293 290 286 281 278 277 277 274 270 269 272 275 278 282 285 288 290 291 292 291 289 288 287 286 286 287 287 287 286 286 286 286 286 286 286 285
267 279 290 296 299 296 292 288 285 285 279 266 264 272 281 289 294 295 298 302 303 303 307 312 315 317 321 324 326 328 328 328 326 324 322 318 313 309 307 303 295 292 293 291 287 286 288 291 293 294 292 287 283 278 272 270 271 272 271 272 274 276 279 282 285 288 290 292 292 292 291 290 289 288 288 288 287 287 286 287 287 287 288 288 287
264 277 288 294 296 294 291 287 285 283 277 267 264 271 280 286 289 292 296 300 301 303 307 311 313 318 322 325 329 329 328 328 327 325 323 320 317 312 308 303 295 292 292 288 285 282 284 288 290 292 290 286 283 278 270 263 264 268 270 270 271 272 274 278 282 287 291 294 296 296 294 292 290 290 290 290 289 288 287 287 287 287 288 289 289
260 273 285 290 292 291 289 286 284 280 276 273 270 272 278 281 284 288 293 298 300 304 309 311 314 319 323 326 328 327 326 326 326 325 323 319 318 315 308 301 292 287 286 284 284 282 285 290 290 290 288 284 284 281 270 261 261 264 268 270 271 273 276 280 284 289 294 297 298 297 294 292 291 290 290 290 290 289 288 287 286 286 287 287 287
257 271 282 287 289 288 286 283 280 278 276 277 274 273 276 279 282 286 291 297 302 306 310 312 317 320 323 324 325 324 325 325 325 325 323 320 321 318 311 302 289 282 282 283 283 288 294 294 290 288 286 281 282 283 273 262 261 264 268 272 274 276 278 282 286 290 293 295 296 295 293 292 292 291 290 290 289 288 287 286 285 285 285 285 285
256 270 278 285 287 285 283 279 277 276 276 278 279 277 278 279 281 286 292 298 303 308 311 313 318 320 321 323 322 323 325 326 326 325 325 324 323 320 313 305 294 282 278 279 279 283 293 298 292 288 285 277 276 280 276 266 264 267 271 274 275 276 277 279 284 288 289 290 291 293 293 292 292 291 291 290 289 288 287 286 285 285 284 284 284
257 269 276 283 286 284 280 276 276 276 277 283 285 282 280 279 281 287 294 300 307 310 311 314 317 319 320 322 323 325 327 329 328 327 327 326 324 319 312 305 299 287 276 275 276 277 286 299 295 288 284 277 274 278 279 275 273 273 275 277 277 276 276 279 283 285 287 288 289 291 291 292 292 291 291 290 290 290 290 289 288 286 284 283 282
259 267 275 282 284 281 276 275 276 277 281 286 287 284 281 281 284 289 296 304 309 309 309 313 317 318 319 321 324 328 330 332 332 331 330 325 319 312 306 302 297 288 277 273 273 276 285 297 294 288 284 278 276 281 285 284 281 277 276 276 277 277 278 279 282 284 286 289 289 290 290 291 291 291 291 290 290 291 291 290 288 286 284 283 282
260 266 274 280 281 277 272 273 276 279 284 287 286 283 282 283 286 291 299 305 307 305 306 312 316 317 318 321 324 326 329 330 331 332 331 325 317 309 303 299 296 289 278 272 271 274 284 294 292 286 282 280 281 284 288 288 285 279 276 275 275 276 277 277 280 283 288 289 289 289 290 291 291 291 290 289 290 290 289 289 287 286 285 283 282
259 265 273 279 277 272 269 272 275 280 285 286 285 283 283 284 288 293 301 304 303 302 307 313 316 316 318 321 322 324 326 327 327 330 329 324 320 313 302 294 291 288 278 270 268 273 284 292 288 281 279 280 281 281 284 286 286 284 280 278 277 277 278 279 282 286 287 288 287 288 289 291 291 290 290 289 288 288 288 287 286 285 284 283 282
258 265 273 276 271 266 267 271 275 281 285 286 285 283 283 285 288 294 299 300 300 303 309 315 316 317 319 321 322 323 326 326 326 328 326 323 323 317 302 289 283 283 277 270 267 272 284 291 284 277 276 276 276 276 278 280 281 282 281 280 281 282 283 284 286 287 286 286 286 286 288 289 289 289 289 288 287 287 287 286 286 285 284 283 282
258 266 273 272 265 262 264 269 275 281 284 284 284 283 283 285 289 293 295 296 300 304 310 315 318 320 320 321 322 324 326 326 327 329 324 320 322 319 306 292 282 277 274 270 267 270 284 293 284 276 276 277 279 278 277 277 277 278 278 279 282 284 285 286 285 285 284 284 283 285 286 287 287 287 287 287 287 286 286 285 285 285 285 285 283
258 266 270 266 261 261 263 267 273 278 281 283 284 283 283 285 287 289 293 297 300 303 308 314 319 322 321 321 323 324 326 327 328 330 326 322 324 321 310 298 283 274 271 271 272 274 284 293 287 279 279 283 285 282 279 278 276 275 277 280 283 285 285 285 285 284 283 283 284 285 285 284 284 285 285 286 286 286 285 284 284 285 286 286 286
259 266 266 261 258 259 261 265 270 274 278 281 282 282 282 284 285 289 294 298 299 303 308 313 319 321 320 320 322 324 325 326 327 331 332 332 334 331 317 302 285 274 273 275 279 281 284 289 289 284 283 284 286 284 281 280 277 276 279 282 284 285 287 288 287 285 284 283 284 284 283 282 283 283 283 284 285 285 285 284 284 285 287 288 288
260 265 261 259 259 259 260 264 268 272 276 279 279 280 282 284 286 290 296 300 301 304 308 314 319 320 319 319 321 323 325 325 327 333 337 337 338 335 318 302 287 280 282 281 281 284 285 285 284 282 282 283 284 283 281 279 278 278 279 280 280 281 282 283 283 282 281 282 282 282 281 282 283 284 284 285 286 286 286 285 286 287 289 290 290
260 263 259 257 258 258 259 262 266 270 273 276 277 279 282 284 287 292 297 300 302 306 310 314 318 319 318 318 321 325 325 326 328 334 337 335 338 338 324 307 299 289 287 286 283 283 285 284 278 276 277 279 281 281 278 276 276 278 279 279 280 281 283 283 282 280 279 281 282 282 281 282 285 287 287 288 289 289 288 289 290 291 291 292 291
261 262 257 254 253 255 259 261 264 268 271 274 276 278 281 285 288 292 297 300 302 305 310 313 316 317 316 318 322 326 326 327 330 334 336 335 340 346 341 330 323 306 294 292 288 287 286 278 271 273 277 279 282 283 280 277 278 281 285 287 289 291 294 295 293 289 285 283 283 281 280 284 289 290 291 291 292 291 291 292 293 293 293 292 293
260 260 256 253 252 254 257 258 261 266 269 272 273 277 281 286 289 292 297 301 302 305 309 312 314 314 315 319 323 326 325 326 330 332 335 335 338 346 347 340 330 317 305 298 293 290 284 271 266 273 280 284 287 288 285 282 283 286 291 295 295 296 297 297 294 291 286 281 279 279 282 289 293 293 292 293 292 292 293 293 294 293 293 293 293
258 257 253 252 252 254 255 256 259 263 266 269 270 276 282 286 290 294 299 300 301 304 307 309 311 311 314 320 323 324 325 325 327 330 332 332 334 338 338 336 331 323 314 304 296 294 289 281 277 280 284 286 287 288 286 286 289 293 294 293 292 292 291 291 291 291 289 282 278 281 287 292 293 292 292 292 292 292 292 292 292 292 292 293 294
257 254 251 250 252 254 255 255 257 260 263 266 269 275 281 286 292 297 299 299 299 301 303 305 307 309 315 321 323 324 324 322 323 327 329 329 331 334 331 329 329 325 319 311 304 301 298 294 290 288 288 288 286 287 289 290 292 293 290 287 287 290 291 291 292 293 293 289 284 284 287 289 290 291 292 292 292 291 290 290 291 292 293 293 294
256 252 249 250 251 254 255 254 256 259 263 266 269 274 281 287 294 298 298 298 297 298 300 303 305 309 315 320 322 323 322 320 321 322 325 326 328 330 329 326 325 321 318 314 307 302 297 294 292 290 289 287 285 286 288 287 285 285 286 286 288 290 290 290 290 291 292 291 287 286 286 288 290 292 292 292 291 291 291 292 293 293 293 293 293
253 249 247 249 251 253 253 255 258 261 264 267 269 274 280 287 293 296 297 299 298 298 300 302 304 307 313 317 320 322 320 320 320 321 323 324 325 326 326 326 324 319 316 311 302 296 290 289 289 287 286 287 288 287 284 281 280 283 285 286 286 288 288 289 291 293 293 291 288 288 289 290 291 292 292 292 291 291 292 293 293 293 293 293 293
249 246 246 248 251 252 254 256 259 263 266 268 271 276 281 287 292 295 298 300 299 299 299 299 302 305 310 314 318 320 320 321 323 324 323 323 324 324 324 323 321 317 313 308 302 297 290 286 286 284 284 286 287 285 283 281 282 284 287 288 289 290 291 294 298 299 296 293 291 291 291 291 291 291 291 291 292 292 293 293 294 294 294 295 295
247 244 245 247 250 251 254 255 257 261 264 267 272 277 282 286 292 295 298 298 296 296 296 297 299 302 306 311 315 318 320 322 324 325 325 325 325 326 327 325 323 319 314 308 303 298 293 288 286 284 284 283 283 284 285 286 289 291 292 293 292 293 295 298 299 297 294 292 291 290 290 291 292 292 292 293 294 294 295 296 296 296 296 296 295
245 243 244 247 249 250 251 250 251 255 258 262 269 276 280 285 289 293 295 293 292 293 294 295 297 300 303 307 311 314 316 318 321 323 324 325 326 328 329 329 326 322 317 313 307 300 295 290 288 287 286 286 285 286 287 289 291 292 293 292 292 293 294 294 294 293 292 292 292 293 295 296 297 297 296 296 296 297 298 298 297 296 296 295 294
242 241 242 245 247 247 247 248 249 251 253 258 266 273 277 281 286 290 291 291 291 292 292 293 296 298 301 304 307 309 311 314 316 318 320 323 326 328 330 330 327 323 318 314 310 305 300 296 293 291 290 290 289 289 290 292 293 293 293 293 293 294 295 296 296 294 294 295 297 299 299 299 299 299 298 298 298 298 297 296 296 295 294 294 294
239 238 241 247 249 244 243 249 253 251 252 258 265 272 277 281 285 289 290 291 292 292 292 294 295 295 297 299 302 304 306 309 312 314 317 322 325 328 329 331 329 324 320 316 312 309 306 303 300 298 296 295 295 296 297 298 298 298 298 297 298 299 300 300 299 298 298 299 300 300 299 299 299 298 298 297 297 297 296 296 295 295 295 295 295
236 237 242 249 249 244 245 253 256 254 255 260 266 270 274 280 285 289 290 292 293 293 293 294 294 293 294 296 298 300 302 305 308 310 314 319 323 327 329 332 332 329 324 320 316 313 311 309 307 304 303 302 302 302 302 302 302 301 300 299 300 300 300 301 301 301 301 301 299 299 298 297 297 297 296 297 297 297 296 296 296 296 297 297 298
233 235 242 246 247 248 252 255 254 254 256 260 264 266 270 277 283 287 289 291 292 292 293 293 292 292 293 294 295 296 298 301 303 306 310 315 321 324 328 331 332 332 329 325 321 318 314 312 310 308 307 305 304 303 302 301 300 300 299 299 300 300 300 300 300 300 299 298 297 297 297 297 297 297 297 297 297 297 297 298 298 299 300 300 300
231 234 239 241 244 248 251 252 252 253 255 257 260 264 269 276 281 285 287 289 289 290 291 290 291 292 292 293 293 295 296 297 300 303 307 312 317 321 325 328 330 331 330 327 324 321 318 315 312 310 309 307 304 303 301 300 300 299 299 299 298 298 299 298 298 298 297 297 296 297 297 297 297 297 297 297 297 298 299 300 301 302 303 303 302
232 234 238 241 244 246 247 250 253 254 254 256 259 263 268 274 279 283 285 286 286 287 289 290 292 293 293 293 294 295 294 295 297 301 304 308 312 316 321 324 326 327 328 326 325 322 320 317 314 311 308 305 302 300 299 298 298 297 297 297 298 299 299 299 299 298 298 298 297 297 297 296 296 297 297 298 299 300 301 303 304 305 305 304 303
233 236 239 243 248 249 249 251 254 256 258 260 261 263 265 270 277 281 282 283 284 286 288 291 293 293 293 294 295 295 293 294 296 299 302 305 308 312 317 320 321 322 323 322 320 319 317 315 311 308 305 301 297 295 293 294 294 295 296 299 301 302 302 301 300 299 298 298 298 297 297 297 298 298 299 300 301 303 304 305 306 306 306 305 305
234 237 239 242 248 250 248 249 252 257 261 263 263 263 263 268 273 277 279 281 284 286 289 291 293 293 294 295 295 294 293 293 294 296 299 302 304 308 312 314 314 316 316 316 316 315 314 312 309 306 303 301 297 293 290 290 291 294 298 303 305 305 304 302 300 299 299 299 299 299 299 299 300 301 302 303 304 305 306 308 309 309 308 308 308
233 235 235 240 247 248 247 249 253 257 260 262 262 263 264 267 271 274 277 280 283 286 289 292 293 294 294 294 294 293 292 291 292 294 297 299 301 304 307 308 310 312 314 316 317 316 315 313 311 308 307 306 304 298 293 291 292 296 302 306 307 306 304 302 300 299 300 300 300 300 301 302 303 303 304 305 306 308 310 311 312 311 311 310 310
232 233 233 239 245 247 250 254 257 259 260 261 263 265 265 267 270 273 277 280 284 287 289 291 292 294 294 294 294 293 292 291 291 293 295 297 299 301 303 305 308 311 315 317 318 318 317 316 314 312 310 310 308 304 298 296 297 301 304 307 307 305 304 302 301 301 302 302 302 302 303 304 305 305 307 309 311 312 313 313 312 311 310 310 309
Height
5870 5869 5868 5866 5866 5866 5865 5864 5863 5863 5862 5861 5861 5860 5859 5859 5858 5857 5856 5856 5856 5857 5857 5856 5854 5853 5852 5851 5851 5851 5851 5850 5848 5847 5847 5846 5844 5843 5843 5842 5841 5840 5839 5838 5837 5836 5835 5834 5833 5833 5832 5831 5831 5830 5830 5830 5829 5828 5828 5827 5826 5826 5825 5825 5824 5824 5823 5822 5821 5820 5819 5819 5818 5817 5817 5816 5815 5815 5814 5814 5813 5812 5812 5811 5810
5869 5868 5867 5866 5865 5865 5864 5863 5862 5862 5861 5860 5860 5859 5859 5859 5858 5857 5856 5855 5854 5855 5856 5855 5854 5853 5852 5852 5851 5850 5850 5849 5847 5846 5845 5844 5843 5842 5841 5840 5839 5838 5837 5836 5835 5834 5834 5833 5832 5831 5831 5830 5829 5829 5828 5828 5827 5827 5826 5825 5825 5824 5824 5823 5823 5822 5821 5821 5820 5819 5818 5818 5817 5816 5816 5815 5814 5814 5813 5812 5812 5811 5810 5809 5808
5868 5868 5867 5866 5865 5864 5863 5862 5861 5861 5860 5860 5859 5859 5858 5858 5857 5857 5856 5855 5854 5853 5853 5854 5854 5853 5852 5852 5850 5850 5849 5848 5846 5844 5843 5842 5841 5841 5840 5839 5838 5837 5836 5835 5834 5833 5832 5832 5831 5830 5829 5829 5828 5827 5827 5826 5826 5825 5824 5824 5823 5823 5823 5822 5821 5821 5820 5819 5819 5818 5817 5816 5816 5815 5814 5814 5813 5813 5812 5811 5810 5809 5809 5808 5807
5868 5867 5866 5865 5864 5863 5862 5861 5861 5860 5860 5859 5858 5858 5857 5857 5856 5856 5855 5854 5853 5852 5852 5853 5853 5852 5851 5850 5849 5849 5848 5847 5844 5842 5841 5840 5840 5839 5838 5837 5836 5836 5835 5833 5832 5831 5830 5830 5830 5829 5828 5828 5827 5826 5825 5824 5824 5823 5823 5822 5822 5822 5821 5820 5820 5819 5819 5818 5817 5817 5816 5815 5814 5813 5813 5813 5812 5811 5811 5810 5809 5808 5807 5806 5806
5867 5866 5865 5864 5863 5862 5862 5860 5860 5859 5859 5858 5857 5857 5856 5856 5855 5855 5854 5852 5851 5851 5851 5852 5852 5850 5849 5848 5847 5847 5847 5846 5843 5841 5839 5838 5838 5837 5836 5835 5835 5834 5833 5832 5831 5830 5829 5828 5828 5828 5827 5826 5826 5824 5823 5822 5822 5821 5821 5821 5820 5820 5819 5819 5818 5818 5817 5817 5816 5815 5814 5813 5813 5812 5811 5811 5810 5810 5809 5808 5807 5807 5806 5805 5804
5866 5865 5865 5863 5862 5861 5861 5860 5859 5859 5858 5857 5857 5856 5855 5855 5854 5854 5853 5852 5851 5851 5850 5850 5850 5848 5847 5846 5845 5845 5845 5844 5842 5840 5838 5837 5836 5836 5834 5834 5833 5833 5832 5831 5830 5829 5828 5827 5827 5826 5826 5825 5824 5823 5822 5821 5820 5820 5820 5819 5819 5818 5817 5817 5817 5816 5816 5815 5814 5814 5813 5812 5811 5810 5810 5809 5809 5808 5807 5807 5806 5805 5804 5804 5803
5866 5864 5863 5863 5861 5860 5860 5859 5858 5858 5857 5856 5856 5855 5854 5854 5853 5853 5852 5852 5851 5850 5849 5849 5848 5847 5845 5844 5843 5843 5843 5842 5841 5839 5837 5836 5835 5834 5833 5832 5832 5831 5830 5829 5828 5827 5826 5825 5825 5825 5824 5824 5823 5822 5821 5819 5818 5818 5818 5818 5817 5816 5816 5815 5815 5815 5814 5813 5813 5812 5811 5810 5809 5808 5808 5807 5807 5807 5806 5805 5804 5804 5803 5802 5802
5866 5864 5863 5862 5861 5859 5859 5858 5858 5857 5856 5855 5854 5854 5853 5853 5853 5852 5851 5850 5850 5849 5848 5848 5847 5846 5844 5842 5841 5841 5841 5841 5840 5838 5836 5835 5833 5833 5832 5831 5830 5830 5829 5828 5827 5826 5825 5824 5823 5823 5823 5822 5821 5820 5819 5818 5817 5817 5816 5816 5815 5815 5814 5814 5813 5813 5813 5812 5811 5810 5809 5809 5808 5807 5806 5806 5805 5805 5804 5803 5803 5802 5801 5801 5800
5865 5864 5862 5861 5860 5859 5858 5857 5857 5856 5855 5854 5853 5852 5852 5852 5852 5851 5850 5849 5848 5848 5847 5846 5845 5844 5843 5841 5840 5839 5839 5840 5839 5837 5835 5834 5832 5831 5830 5830 5829 5828 5828 5827 5826 5824 5824 5823 5822 5821 5821 5820 5820 5819 5818 5817 5815 5815 5815 5814 5814 5813 5813 5813 5812 5812 5811 5810 5809 5808 5808 5807 5806 5805 5805 5804 5803 5803 5802 5802 5801 5800 5800 5799 5799
5864 5863 5862 5861 5860 5858 5857 5856 5855 5854 5853 5853 5852 5851 5851 5851 5851 5850 5849 5848 5847 5846 5845 5845 5844 5843 5841 5840 5838 5837 5836 5837 5837 5835 5834 5832 5831 5829 5829 5828 5827 5827 5826 5825 5824 5823 5822 5821 5820 5819 5819 5818 5818 5817 5816 5815 5814 5814 5814 5813 5812 5812 5811 5811 5811 5810 5809 5808 5808 5807 5806 5805 5804 5804 5803 5802 5802 5801 5800 5800 5799 5799 5798 5798 5797
5862 5862 5861 5860 5859 5857 5856 5855 5854 5853 5852 5851 5850 5850 5850 5850 5850 5849 5848 5847 5846 5845 5844 5843 5842 5841 5840 5838 5837 5835 5834 5834 5834 5834 5832 5831 5830 5828 5827 5826 5826 5825 5824 5824 5823 5822 5821 5819 5819 5818 5817 5816 5816 5816 5815 5813 5813 5812 5812 5812 5811 5810 5810 5809 5809 5808 5808 5807 5806 5805 5804 5804 5803 5802 5801 5800 5800 5799 5799 5798 5798 5797 5796 5796 5795
5860 5860 5859 5859 5858 5856 5855 5853 5852 5851 5850 5850 5849 5849 5849 5849 5848 5847 5847 5846 5845 5844 5843 5842 5841 5840 5838 5837 5835 5834 5832 5831 5832 5831 5831 5830 5828 5827 5825 5824 5824 5823 5823 5822 5821 5820 5819 5818 5817 5816 5815 5814 5814 5814 5813 5812 5812 5811 5810 5810 5810 5809 5808 5808 5807 5807 5806 5805 5804 5804 5803 5802 5801 5800 5799 5799 5798 5797 5797 5796 5796 5795 5795 5794 5794
5857 5857 5857 5857 5856 5855 5854 5852 5851 5849 5849 5848 5848 5848 5848 5847 5847 5846 5845 5844 5843 5842 5842 5841 5839 5838 5837 5835 5834 5832 5831 5829 5829 5829 5828 5828 5827 5825 5824 5823 5822 5822 5821 5821 5819 5818 5817 5816 5815 5814 5813 5812 5811 5812 5812 5811 5810 5809 5808 5808 5808 5807 5806 5806 5806 5805 5804 5803 5803 5802 5801 5800 5799 5799 5798 5797 5796 5796 5795 5794 5794 5793 5793 5792 5792
5855 5855 5855 5855 5855 5854 5852 5850 5849 5848 5847 5846 5846 5846 5846 5846 5845 5844 5843 5843 5842 5841 5840 5839 5838 5837 5835 5834 5833 5831 5829 5828 5827 5828 5826 5825 5824 5823 5822 5821 5820 5820 5820 5819 5818 5816 5815 5815 5813 5812 5811 5810 5809 5809 5810 5810 5808 5807 5806 5806 5806 5805 5804 5804 5804 5804 5803 5802 5801 5800 5799 5798 5798 5797 5796 5795 5794 5794 5793 5792 5792 5791 5791 5790 5790
5852 5853 5853 5853 5853 5852 5851 5849 5848 5847 5846 5845 5845 5844 5844 5844 5843 5843 5842 5841 5840 5839 5838 5837 5836 5835 5834 5833 5831 5829 5828 5826 5825 5825 5824 5823 5822 5821 5820 5819 5819 5818 5818 5817 5816 5815 5814 5813 5811 5810 5809 5808 5807 5807 5807 5807 5807 5805 5804 5804 5804 5803 5802 5802 5802 5802 5801 5800 5799 5798 5797 5796 5796 5795 5794 5793 5792 5792 5791 5790 5790 5789 5788 5788 5787
5850 5851 5852 5852 5851 5850 5849 5848 5847 5845 5845 5844 5844 5843 5843 5843 5842 5842 5841 5840 5839 5838 5836 5835 5834 5833 5832 5831 5830 5828 5826 5824 5823 5822 5821 5820 5820 5819 5818 5817 5817 5816 5816 5816 5815 5813 5812 5811 5810 5808 5807 5806 5805 5805 5805 5805 5804 5804 5803 5802 5801 5801 5800 5800 5799 5799 5799 5798 5797 5796 5795 5794 5793 5793 5792 5791 5790 5790 5789 5788 5787 5787 5786 5785 5785
5848 5849 5849 5849 5849 5849 5848 5847 5845 5844 5843 5843 5842 5842 5842 5841 5841 5840 5839 5839 5838 5836 5834 5833 5832 5831 5831 5830 5828 5826 5824 5822 5820 5819 5818 5818 5817 5816 5815 5815 5814 5814 5814 5814 5813 5812 5811 5810 5808 5806 5805 5804 5803 5803 5803 5802 5802 5801 5801 5800 5799 5799 5799 5798 5797 5797 5796 5795 5795 5794 5792 5792 5791 5790 5790 5789 5788 5787 5787 5786 5785 5784 5784 5783 5782
5846 5847 5847 5847 5847 5847 5846 5845 5844 5842 5842 5841 5840 5840 5840 5839 5839 5838 5838 5837 5836 5835 5833 5832 5831 5830 5829 5828 5826 5824 5822 5820 5818 5816 5815 5815 5814 5813 5812 5812 5811 5812 5812 5812 5811 5811 5810 5809 5807 5805 5803 5801 5800 5801 5801 5800 5799 5799 5798 5798 5798 5797 5797 5796 5795 5794 5793 5793 5792 5791 5790 5790 5789 5788 5788 5787 5786 5785 5784 5784 5783 5782 5781 5781 5780
5844 5845 5845 5845 5845 5845 5844 5843 5842 5841 5840 5839 5838 5838 5838 5838 5837 5837 5836 5835 5834 5833 5832 5830 5830 5829 5827 5826 5824 5822 5820 5818 5816 5814 5812 5812 5812 5811 5810 5809 5809 5809 5809 5809 5809 5809 5808 5807 5806 5804 5802 5800 5798 5798 5799 5798 5797 5797 5797 5796 5796 5795 5795 5794 5793 5792 5791 5790 5790 5789 5788 5788 5787 5786 5785 5785 5784 5783 5782 5781 5781 5780 5779 5778 5778
5843 5843 5844 5843 5843 5843 5842 5840 5839 5838 5837 5836 5836 5836 5836 5836 5836 5835 5834 5833 5832 5831 5830 5829 5828 5827 5826 5824 5822 5820 5818 5816 5814 5812 5810 5809 5809 5807 5807 5807 5807 5806 5806 5806 5806 5806 5806 5806 5804 5802 5800 5798 5797 5796 5796 5796 5795 5795 5795 5794 5794 5793 5792 5792 5791 5790 5789 5788 5787 5787 5786 5785 5785 5784 5783 5783 5782 5781 5780 5779 5778 5777 5776 5775 5775
5841 5842 5842 5842 5841 5840 5839 5838 5837 5836 5835 5834 5834 5834 5834 5834 5834 5833 5832 5831 5831 5830 5829 5828 5827 5825 5823 5822 5820 5819 5817 5815 5813 5811 5809 5808 5806 5804 5803 5804 5804 5804 5803 5803 5804 5804 5804 5804 5802 5801 5799 5797 5795 5795 5795 5794 5793 5792 5792 5792 5792 5791 5790 5789 5789 5788 5787 5786 5785 5785 5784 5783 5783 5782 5781 5780 5779 5778 5777 5776 5775 5774 5773 5772 5771
5840 5840 5840 5839 5838 5838 5837 5836 5835 5834 5833 5832 5832 5832 5832 5832 5832 5831 5830 5830 5829 5829 5828 5827 5825 5823 5822 5820 5819 5817 5816 5813 5811 5809 5808 5807 5805 5802 5800 5800 5800 5801 5801 5800 5800 5801 5801 5801 5800 5798 5796 5795 5794 5794 5793 5793 5792 5791 5790 5790 5789 5789 5788 5787 5786 5786 5785 5784 5783 5782 5782 5781 5780 5779 5779 5778 5777 5776 5774 5773 5772 5771 5770 5769 5768
5838 5838 5838 5837 5836 5835 5834 5833 5833 5832 5831 5830 5830 5830 5830 5830 5829 5829 5829 5828 5828 5828 5827 5825 5824 5822 5820 5819 5817 5815 5814 5812 5809 5807 5806 5804 5802 5801 5800 5798 5797 5797 5798 5798 5797 5797 5798 5798 5797 5795 5794 5793 5792 5792 5792 5791 5790 5789 5788 5787 5787 5786 5785 5785 5784 5783 5782 5782 5781 5780 5779 5779 5778 5777 5776 5775 5774 5773 5772 5771 5770 5769 5768 5766 5765
5836 5836 5835 5834 5833 5833 5832 5831 5830 5830 5829 5828 5828 5828 5828 5828 5828 5827 5828 5828 5827 5826 5825 5824 5822 5821 5819 5817 5815 5813 5811 5809 5807 5805 5803 5801 5799 5799 5799 5797 5795 5795 5795 5795 5795 5795 5795 5795 5794 5792 5791 5790 5790 5790 5790 5789 5788 5787 5786 5785 5784 5783 5783 5782 5781 5780 5780 5779 5778 5778 5777 5776 5775 5774 5773 5772 5771 5770 5769 5768 5767 5766 5764 5763 5762
5833 5833 5832 5832 5831 5830 5829 5828 5828 5827 5827 5826 5826 5826 5826 5826 5826 5826 5827 5827 5826 5824 5823 5822 5821 5819 5818 5816 5814 5812 5810 5807 5805 5804 5802 5799 5797 5796 5796 5796 5794 5793 5793 5793 5794 5793 5793 5793 5792 5790 5789 5788 5788 5788 5787 5786 5785 5785 5784 5783 5782 5781 5780 5779 5778 5778 5777 5777 5776 5775 5775 5774 5773 5772 5770 5769 5768 5767 5766 5765 5764 5762 5761 5760 5758
5830 5830 5829 5829 5828 5827 5827 5826 5825 5825 5825 5824 5824 5824 5824 5824 5825 5825 5826 5825 5824 5823 5822 5821 5820 5818 5816 5814 5813 5811 5808 5806 5803 5802 5800 5798 5795 5794 5793 5793 5792 5791 5791 5792 5792 5792 5792 5791 5790 5788 5786 5785 5785 5786 5785 5784 5783 5782 5782 5781 5780 5779 5778 5777 5776 5775 5775 5774 5774 5773 5772 5771 5770 5769 5768 5766 5765 5764 5763 5762 5760 5759 5757 5756 5755
5827 5827 5827 5826 5825 5825 5824 5823 5823 5822 5822 5822 5822 5822 5822 5823 5824 5824 5824 5822 5821 5821 5820 5820 5818 5817 5815 5813 5811 5809 5807 5804 5801 5800 5799 5796 5793 5792 5791 5790 5790 5789 5789 5790 5790 5789 5789 5789 5788 5786 5785 5784 5783 5783 5783 5782 5781 5780 5779 5778 5777 5776 5775 5774 5774 5773 5772 5772 5771 5771 5770 5769 5767 5766 5765 5763 5762 5761 5760 5758 5757 5755 5753 5752 5751
5824 5824 5824 5823 5822 5822 5821 5820 5820 5820 5820 5820 5820 5820 5821 5821 5822 5822 5821 5820 5820 5819 5819 5818 5817 5815 5813 5811 5810 5807 5805 5803 5799 5797 5796 5794 5791 5790 5789 5787 5787 5787 5787 5788 5787 5787 5787 5787 5786 5785 5783 5782 5781 5780 5780 5780 5779 5778 5777 5776 5775 5774 5773 5772 5771 5770 5770 5769 5769 5768 5767 5766 5764 5763 5762 5760 5759 5758 5756 5755 5753 5752 5750 5749 5747
5822 5821 5821 5820 5819 5819 5818 5818 5818 5818 5818 5818 5818 5819 5819 5820 5821 5820 5819 5819 5818 5817 5817 5816 5815 5814 5812 5810 5808 5806 5804 5801 5798 5795 5794 5792 5789 5787 5785 5784 5785 5785 5785 5785 5785 5785 5785 5784 5784 5782 5781 5779 5778 5777 5777 5777 5776 5775 5774 5774 5773 5772 5770 5769 5768 5767 5767 5766 5765 5765 5764 5763 5761 5760 5759 5757 5756 5754 5753 5751 5750 5748 5747 5745 5744
5818 5818 5817 5817 5816 5816 5816 5815 5816 5816 5816 5816 5816 5817 5817 5818 5819 5818 5817 5817 5817 5816 5815 5814 5813 5812 5810 5808 5806 5805 5802 5800 5798 5794 5791 5790 5787 5784 5782 5782 5783 5783 5783 5784 5783 5783 5783 5782 5781 5780 5778 5777 5775 5775 5775 5775 5774 5773 5772 5771 5771 5770 5768 5767 5766 5764 5763 5763 5762 5761 5760 5759 5758 5757 5756 5754 5753 5751 5749 5747 5746 5745 5743 5742 5740
5815 5815 5814 5814 5813 5813 5813 5813 5813 5813 5814 5814 5814 5815 5815 5816 5816 5816 5816 5815 5815 5814 5813 5812 5811 5810 5809 5807 5805 5804 5801 5799 5797 5794 5790 5789 5786 5783 5782 5782 5781 5782 5782 5782 5782 5781 5780 5779 5778 5777 5775 5774 5773 5772 5772 5772 5771 5770 5769 5768 5768 5767 5766 5765 5763 5761 5760 5759 5758 5758 5756 5755 5754 5753 5752 5750 5749 5747 5745 5743 5742 5741 5739 5738 5736
5812 5812 5811 5811 5811 5811 5811 5811 5811 5811 5811 5812 5812 5813 5813 5814 5815 5814 5814 5813 5812 5812 5811 5810 5810 5809 5808 5806 5804 5802 5800 5798 5796 5793 5790 5788 5785 5783 5782 5781 5781 5781 5781 5781 5780 5778 5777 5777 5775 5774 5773 5771 5771 5770 5770 5769 5768 5767 5765 5765 5764 5763 5762 5761 5760 5758 5757 5756 5755 5754 5752 5751 5750 5749 5747 5746 5745 5743 5741 5739 5738 5737 5735 5734 5732
5809 5809 5808 5808 5808 5808 5808 5808 5809 5809 5809 5810 5810 5811 5811 5812 5813 5813 5812 5811 5810 5809 5809 5808 5808 5807 5806 5805 5803 5801 5799 5796 5794 5792 5790 5788 5785 5782 5781 5780 5779 5779 5779 5779 5778 5777 5776 5775 5774 5772 5771 5770 5769 5769 5769 5767 5765 5763 5763 5762 5761 5760 5759 5758 5757 5756 5755 5753 5752 5750 5748 5747 5747 5745 5744 5742 5741 5739 5737 5736 5734 5733 5731 5729 5727
5806 5806 5805 5805 5805 5805 5806 5806 5806 5807 5807 5808 5808 5809 5809 5810 5811 5811 5811 5809 5808 5807 5807 5806 5805 5805 5804 5803 5802 5800 5798 5795 5793 5791 5789 5787 5785 5782 5780 5779 5778 5777 5777 5777 5776 5775 5774 5774 5773 5771 5770 5769 5768 5767 5766 5765 5763 5761 5761 5760 5759 5758 5756 5754 5753 5752 5751 5750 5748 5746 5745 5744 5744 5742 5740 5738 5737 5735 5734 5732 5730 5728 5726 5724 5722
5803 5803 5803 5803 5803 5803 5803 5803 5804 5805 5805 5805 5806 5806 5807 5808 5808 5809 5809 5807 5806 5806 5805 5805 5804 5803 5802 5801 5800 5798 5797 5795 5792 5790 5788 5786 5784 5782 5780 5778 5776 5775 5775 5774 5773 5772 5772 5772 5772 5770 5769 5767 5766 5765 5763 5762 5760 5760 5758 5757 5756 5754 5753 5751 5749 5747 5747 5745 5743 5742 5741 5741 5739 5738 5736 5734 5732 5731 5729 5727 5724 5722 5720 5718 5717
5800 5800 5800 5800 5800 5800 5800 5801 5802 5803 5803 5803 5803 5804 5804 5805 5806 5806 5806 5806 5805 5804 5804 5803 5802 5801 5800 5799 5798 5796 5795 5793 5791 5789 5787 5785 5783 5781 5779 5777 5775 5774 5773 5771 5770 5769 5769 5769 5769 5768 5767 5765 5764 5763 5762 5760 5758 5757 5755 5754 5752 5750 5749 5747 5745 5744 5743 5741 5740 5739 5738 5736 5735 5733 5731 5729 5728 5726 5724 5721 5719 5717 5715 5713 5712
5797 5798 5798 5798 5798 5798 5798 5799 5800 5800 5800 5801 5801 5802 5802 5803 5803 5803 5804 5804 5803 5802 5802 5801 5800 5799 5798 5796 5796 5795 5793 5792 5790 5787 5785 5783 5781 5779 5777 5775 5774 5772 5771 5770 5768 5767 5767 5767 5767 5766 5764 5762 5762 5761 5759 5757 5755 5754 5752 5750 5748 5746 5745 5743 5742 5740 5739 5738 5736 5734 5733 5732 5730 5728 5726 5725 5723 5721 5719 5716 5714 5712 5710 5708 5706
5795 5795 5795 5795 5795 5795 5796 5797 5798 5798 5798 5799 5799 5800 5800 5800 5800 5801 5801 5801 5801 5800 5799 5798 5797 5797 5796 5794 5793 5793 5791 5790 5788 5785 5783 5781 5779 5777 5775 5773 5772 5770 5769 5768 5766 5765 5765 5764 5764 5763 5761 5760 5760 5758 5756 5753 5751 5750 5748 5746 5744 5742 5741 5739 5738 5737 5736 5735 5733 5730 5729 5727 5725 5724 5722 5721 5719 5716 5714 5712 5709 5707 5705 5703 5701
5792 5793 5793 5793 5793 5793 5793 5794 5795 5796 5796 5797 5797 5798 5798 5798 5798 5798 5798 5798 5797 5797 5796 5796 5795 5795 5793 5792 5791 5790 5789 5787 5786 5783 5781 5779 5777 5775 5773 5771 5770 5768 5767 5766 5764 5763 5762 5761 5760 5759 5758 5757 5755 5754 5752 5750 5748 5747 5745 5743 5741 5739 5738 5737 5736 5735 5733 5732 5730 5728 5726 5724 5723 5721 5719 5716 5714 5712 5709 5707 5704 5702 5700 5697 5695
5790 5790 5790 5790 5790 5790 5791 5792 5793 5793 5794 5794 5795 5796 5796 5796 5796 5795 5795 5795 5795 5794 5794 5793 5793 5793 5791 5790 5789 5787 5786 5784 5783 5781 5779 5777 5775 5773 5771 5769 5767 5766 5764 5763 5762 5761 5760 5758 5757 5756 5754 5753 5751 5750 5748 5747 5745 5744 5742 5740 5739 5737 5736 5735 5734 5732 5731 5729 5727 5725 5723 5721 5719 5717 5714 5712 5709 5706 5704 5702 5699 5697 5694 5691 5689
5787 5787 5787 5787 5787 5787 5788 5789 5790 5791 5791 5792 5792 5793 5793 5794 5794 5793 5794 5793 5793 5792 5791 5791 5791 5790 5789 5788 5786 5785 5783 5782 5780 5778 5777 5774 5772 5770 5768 5766 5764 5763 5761 5760 5759 5758 5757 5756 5755 5753 5751 5750 5748 5747 5745 5744 5742 5741 5739 5738 5736 5735 5734 5733 5731 5729 5727 5725 5723 5721 5719 5716 5714 5712 5710 5707 5703 5701 5699 5697 5694 5691 5688 5685 5682
5783 5784 5784 5784 5784 5784 5784 5785 5787 5787 5788 5789 5789 5791 5791 5791 5792 5792 5792 5791 5790 5789 5788 5788 5788 5788 5786 5785 5784 5783 5781 5780 5778 5776 5774 5772 5770 5768 5766 5764 5762 5760 5758 5757 5756 5755 5754 5753 5752 5750 5748 5747 5745 5744 5742 5741 5739 5737 5736 5734 5733 5732 5731 5729 5728 5726 5724 5721 5719 5717 5715 5712 5710 5707 5705 5702 5699 5696 5694 5691 5688 5685 5681 5678 5676
5780 5780 5780 5781 5782 5782 5781 5782 5783 5785 5785 5786 5787 5788 5789 5789 5789 5790 5789 5788 5787 5786 5786 5785 5785 5785 5784 5783 5782 5780 5779 5777 5776 5774 5771 5769 5767 5765 5763 5762 5760 5758 5756 5755 5753 5752 5751 5750 5748 5747 5745 5744 5742 5741 5739 5737 5736 5734 5732 5730 5729 5728 5726 5725 5723 5721 5719 5717 5714 5712 5710 5707 5705 5703 5700 5697 5694 5690 5687 5684 5681 5678 5675 5672 5669
5776 5776 5776 5778 5780 5781 5780 5780 5781 5782 5783 5784 5784 5785 5786 5787 5787 5787 5787 5786 5784 5783 5783 5783 5782 5782 5781 5780 5779 5777 5776 5774 5773 5771 5769 5767 5765 5763 5761 5759 5757 5756 5754 5752 5751 5749 5748 5747 5745 5744 5742 5741 5739 5737 5736 5734 5732 5730 5729 5727 5725 5723 5722 5720 5718 5716 5714 5712 5709 5707 5705 5703 5700 5698 5694 5691 5688 5684 5681 5677 5674 5671 5668 5664 5662
5772 5773 5774 5775 5777 5779 5779 5778 5779 5780 5781 5781 5782 5782 5784 5784 5784 5784 5784 5783 5781 5780 5780 5780 5779 5779 5779 5778 5776 5775 5773 5772 5770 5768 5766 5764 5762 5760 5758 5756 5755 5753 5751 5749 5748 5746 5745 5744 5742 5741 5739 5737 5736 5734 5732 5730 5729 5727 5725 5723 5722 5720 5718 5716 5714 5712 5710 5707 5704 5702 5699 5697 5695 5692 5688 5685 5681 5677 5674 5670 5666 5663 5660 5657 5654
5769 5769 5770 5771 5774 5776 5776 5777 5777 5778 5778 5779 5779 5779 5781 5781 5781 5782 5781 5780 5778 5777 5777 5777 5777 5776 5776 5775 5774 5772 5770 5769 5767 5765 5763 5761 5759 5757 5756 5754 5752 5750 5748 5746 5745 5743 5741 5740 5739 5737 5736 5734 5732 5731 5729 5727 5726 5724 5722 5720 5719 5717 5714 5712 5710 5707 5705 5702 5700 5697 5694 5691 5688 5685 5682 5678 5675 5671 5667 5663 5659 5656 5652 5648 5646
5766 5766 5767 5769 5771 5773 5774 5774 5774 5775 5775 5775 5775 5776 5778 5779 5779 5779 5778 5777 5775 5774 5774 5774 5774 5773 5773 5772 5771 5769 5767 5766 5764 5762 5760 5758 5756 5755 5753 5751 5749 5747 5745 5743 5742 5740 5738 5737 5735 5734 5732 5731 5729 5727 5726 5724 5723 5721 5719 5717 5715 5713 5711 5708 5705 5703 5700 5697 5694 5691 5688 5685 5682 5678 5675 5672 5669 5665 5661 5657 5653 5649 5644 5640 5638
5763 5765 5766 5768 5771 5773 5773 5772 5772 5772 5772 5772 5772 5774 5775 5776 5776 5776 5775 5774 5772 5770 5770 5771 5770 5770 5770 5769 5768 5766 5764 5762 5761 5759 5757 5755 5753 5752 5750 5748 5746 5744 5743 5741 5740 5738 5737 5736 5734 5732 5730 5728 5726 5724 5722 5721 5719 5717 5715 5714 5712 5709 5707 5704 5700 5697 5694 5691 5688 5685 5681 5678 5675 5672 5669 5666 5663 5658 5655 5652 5647 5642 5638 5633 5630
5762 5763 5764 5767 5769 5771 5771 5771 5769 5769 5770 5770 5770 5771 5772 5772 5773 5773 5772 5770 5768 5767 5767 5767 5767 5766 5766 5765 5764 5763 5761 5759 5757 5756 5754 5752 5750 5749 5747 5746 5744 5742 5741 5739 5738 5736 5735 5733 5731 5729 5727 5725 5723 5720 5718 5717 5715 5713 5712 5710 5708 5705 5702 5699 5695 5692 5688 5685 5682 5678 5674 5671 5668 5665 5662 5660 5657 5652 5649 5646 5641 5635 5631 5626 5623
5759 5760 5763 5766 5767 5768 5768 5768 5767 5767 5767 5767 5767 5768 5769 5769 5769 5769 5768 5767 5765 5764 5763 5764 5763 5763 5763 5762 5760 5759 5757 5756 5754 5752 5750 5748 5746 5745 5744 5742 5740 5739 5737 5736 5734 5732 5731 5729 5727 5724 5722 5720 5718 5716 5714 5712 5711 5709 5708 5705 5703 5700 5697 5693 5689 5686 5683 5679 5675 5672 5667 5664 5661 5658 5655 5653 5651 5646 5642 5639 5633 5628 5624 5620 5616
5757 5758 5761 5764 5764 5765 5765 5765 5764 5764 5764 5764 5764 5765 5766 5766 5766 5765 5764 5763 5762 5761 5760 5760 5759 5759 5759 5758 5756 5755 5753 5752 5751 5749 5747 5745 5743 5741 5740 5738 5736 5735 5733 5731 5730 5728 5726 5724 5721 5719 5718 5716 5714 5712 5710 5708 5707 5705 5703 5700 5698 5695 5691 5687 5684 5680 5677 5673 5670 5666 5661 5657 5654 5651 5648 5647 5644 5640 5636 5632 5628 5622 5618 5615 5611